Location: Tierra del Sol
(32.6128°N, 116.3319°W)
Time: 16:48:56
(UTC-07:00)

Amateur Radio Satellites - All Passes

Search period start: 02 September 2014 16:18
Search period end: 03 September 2014 16:18
Location: Tierra del Sol, 32.6128°N, 116.3319°W

Satellite Date Start Highest point End Downlink Frequencies (MHz)
Time Altitude Azimuth
ISS 02 Sep 16:25:30 16:28:43 46° 41° (NE) 16:31:56 145.800 FM
OPAL 02 Sep 16:48:16 16:53:07 38° 101° (E) 16:57:54 ?
Uosat F 02 Sep 16:49:20 16:54:09 48° 260° (W) 16:58:59 435.120 FM
Sapphire 02 Sep 17:10:28 17:14:58 27° 304° (WNW) 17:19:31 437.095 MHz 1200 baud AX-25 AFSK
JAS-2 02 Sep 17:10:58 17:16:04 29° 71° (ENE) 17:20:44 435.800 - 435.900 CW/SSB, 435.910 FM
AO-7 02 Sep 17:17:54 17:25:29 39° 260° (W) 17:33:07 29.400 - 29.500 MHz
Hamsat 02 Sep 17:27:24 17:31:16 33° 73° (ENE) 17:35:10 145.90 MHz
PCSat 02 Sep 17:41:43 17:44:31 14° 309° (NW) 17:47:21 145.825 MHz
RS-15 02 Sep 17:47:08 17:57:54 56° 249° (WSW) 18:09:09 29.354 - 29.394 USB, Beacon 29.352 USB
ISS 02 Sep 18:03:53 18:05:06 12° 234° (SW) 18:06:19 145.800 FM
OPAL 02 Sep 18:27:47 18:31:40 22° 294° (WNW) 18:35:32 ?
STRAND 1 02 Sep 18:37:56 18:41:46 21° 96° (E) 18:45:35 ?
JAS-2 02 Sep 18:55:33 19:01:02 32° 261° (W) 19:06:01 435.800 - 435.900 CW/SSB, 435.910 FM
Hamsat 02 Sep 19:04:35 19:07:16 16° 266° (W) 19:09:58 145.90 MHz
SO-67 02 Sep 19:15:43 19:19:10 87° 262° (W) 19:22:39 435.3500 MHz FM
HO-68 02 Sep 19:22:41 19:26:07 14° 58° (ENE) 19:29:33 435.675 MHz FM
STRAND 1 02 Sep 20:16:21 20:20:58 35° 289° (WNW) 20:25:34 ?
UKube-1 02 Sep 21:04:33 21:08:36 40° 73° (ENE) 21:12:40 145.840 MHz, 145.915 MHz
HO-68 02 Sep 21:05:41 21:12:49 90° 254° (WSW) 21:20:00 435.675 MHz FM
Oscar 11 02 Sep 21:07:36 21:11:11 26° 71° (ENE) 21:14:49 145.825 FM, Beacon 2401.500 USB
MaSat-1 02 Sep 21:27:02 21:29:40 16° 55° (NE) 21:32:05 437.345 MHz
Saudisat 1A 02 Sep 21:29:37 21:34:00 80° 117° (ESE) 21:38:25 436.775 MHz
FUNcube-1 02 Sep 21:42:52 21:46:12 23° 71° (ENE) 21:49:35 145.950 - 145.970 MHz USB
KITSAT 1 02 Sep 22:30:43 22:38:43 71° 113° (ESE) 22:46:46 435.175 FM
UKube-1 02 Sep 22:42:50 22:44:55 13° 266° (W) 22:47:01 145.840 MHz, 145.915 MHz
Oscar 11 02 Sep 22:44:02 22:47:18 21° 265° (W) 22:50:35 145.825 FM, Beacon 2401.500 USB
HO-68 02 Sep 22:58:55 23:01:13 12° 268° (W) 23:03:31 435.675 MHz FM
MaSat-1 02 Sep 23:03:05 23:06:48 32° 255° (WSW) 23:10:02 437.345 MHz
Oscar 10/S400 02 Sep 23:17:44 23:55:23 73° 196° (SSW) 09:44:07 145.825 - 145.975 CW/USB, Beacon 145.810 USB
FUNcube-1 02 Sep 23:19:17 23:22:29 21° 265° (W) 23:25:45 145.950 - 145.970 MHz USB
AO-40 03 Sep 00:04:54 01:48:35 31° 224° (SW) 05:39:18 Beacon 2401.320
Sapphire 03 Sep 00:21:07 00:23:11 12° 49° (NE) 00:25:15 437.095 MHz 1200 baud AX-25 AFSK
KITSAT 1 03 Sep 00:28:30 00:34:45 24° 311° (NW) 00:41:02 435.175 FM
PCSat 03 Sep 00:48:29 00:52:45 23° 55° (NE) 00:56:58 145.825 MHz
Oscar 16 03 Sep 01:27:15 01:31:26 24° 96° (E) 01:35:35 437.025 USB, Beacon 2401.1428
Uribyol 2 03 Sep 01:42:34 01:45:07 14° 93° (E) 01:47:41 436.500 FM
Sapphire 03 Sep 02:01:49 02:07:16 85° 246° (WSW) 02:12:40 437.095 MHz 1200 baud AX-25 AFSK
AO-27 03 Sep 02:02:19 02:06:16 22° 96° (E) 02:10:12 436.795 MHz FM
SO-50 03 Sep 02:24:06 02:28:28 64° 116° (ESE) 02:32:58 436.795 FM
AO-Echo 03 Sep 02:29:18 02:33:49 46° 100° (E) 02:38:23 ?
Oscar 19 03 Sep 02:30:08 02:35:20 77° 284° (WNW) 02:40:29 437.125 CW, 437.150 USB
PCSat 03 Sep 02:31:13 02:36:16 41° 250° (WSW) 02:41:17 145.825 MHz
JAS-1B 03 Sep 02:46:21 02:52:29 54° 100° (E) 02:58:01 435.800 - 435.900 CW/SSB
Gurwin Techsat 1B 03 Sep 02:50:12 02:54:46 29° 97° (E) 02:59:19 435.225 FM
Oscar 16 03 Sep 03:06:10 03:10:44 32° 290° (WNW) 03:15:16 437.025 USB, Beacon 2401.1428
ITAMSAT 1 03 Sep 03:10:40 03:15:51 74° 285° (WNW) 03:21:01 435.822 SSB
Uribyol 2 03 Sep 03:19:47 03:24:51 55° 286° (WNW) 03:29:55 436.500 FM
AO-7 03 Sep 03:34:06 03:38:29 15° 93° (E) 03:42:50 29.400 - 29.500 MHz
TMSAT-1 03 Sep 03:38:48 03:44:04 66° 101° (ESE) 03:49:19 436.925 FM
AO-27 03 Sep 03:41:06 03:45:47 35° 289° (WNW) 03:50:28 436.795 MHz FM
OPAL 03 Sep 03:58:49 04:03:31 41° 70° (ENE) 04:08:19 ?
UOSAT-12 03 Sep 04:03:23 04:07:48 50° 114° (ESE) 04:12:19 437.025 FM, 437.400 FM
SO-50 03 Sep 04:07:35 04:09:28 12° 312° (NW) 04:11:22 436.795 FM
AO-Echo 03 Sep 04:09:40 04:12:11 15° 293° (WNW) 04:14:43 ?
Gurwin Techsat 1B 03 Sep 04:30:09 04:34:36 28° 291° (WNW) 04:39:02 435.225 FM
JAS-1B 03 Sep 04:38:37 04:42:27 17° 299° (WNW) 04:46:05 435.800 - 435.900 CW/SSB
Uosat F 03 Sep 05:01:23 05:06:24 76° 103° (ESE) 05:11:23 435.120 FM
TMSAT-1 03 Sep 05:21:06 05:23:22 13° 296° (WNW) 05:25:38 436.925 FM
AO-7 03 Sep 05:23:40 05:31:59 86° 288° (WNW) 05:40:15 29.400 - 29.500 MHz
OPAL 03 Sep 05:39:02 05:42:30 19° 264° (W) 05:46:01 ?
UOSAT-12 03 Sep 05:45:22 05:48:14 16° 310° (NW) 05:51:07 437.025 FM, 437.400 FM
STRAND 1 03 Sep 05:49:59 05:53:36 20° 67° (ENE) 05:57:14 ?
RS-15 03 Sep 05:53:45 06:03:29 36° 106° (ESE) 06:12:58 29.354 - 29.394 USB, Beacon 29.352 USB
Saudisat 1A 03 Sep 06:01:32 06:04:39 19° 52° (NE) 06:07:44 436.775 MHz
JAS-2 03 Sep 06:07:52 06:12:52 36° 99° (E) 06:18:21 435.800 - 435.900 CW/SSB, 435.910 FM
KITSAT 1 03 Sep 06:30:46 06:35:37 17° 44° (NE) 06:40:27 435.175 FM
Hamsat 03 Sep 06:53:05 06:57:22 63° 284° (WNW) 07:01:34 145.90 MHz
AO-7 03 Sep 07:19:08 07:23:33 16° 305° (NW) 07:27:59 29.400 - 29.500 MHz
STRAND 1 03 Sep 07:27:46 07:32:29 38° 261° (W) 07:37:13 ?
ISS 03 Sep 07:29:42 07:31:28 14° 126° (SE) 07:33:15 145.800 FM
Saudisat 1A 03 Sep 07:40:15 07:44:19 37° 247° (WSW) 07:48:21 436.775 MHz
JAS-2 03 Sep 07:53:34 07:57:48 24° 290° (WNW) 08:02:20 435.800 - 435.900 CW/SSB, 435.910 FM
RS-15 03 Sep 08:04:31 08:15:17 54° 304° (NW) 08:25:57 29.354 - 29.394 USB, Beacon 29.352 USB
SO-67 03 Sep 08:16:58 08:20:09 35° 285° (WNW) 08:23:18 435.3500 MHz FM
KITSAT 1 03 Sep 08:24:08 08:32:15 81° 64° (ENE) 08:40:18 435.175 FM
HO-68 03 Sep 08:39:44 08:45:00 22° 95° (E) 08:50:15 435.675 MHz FM
ISS 03 Sep 09:04:46 09:07:55 39° 320° (NW) 09:11:04 145.800 FM
PANSAT 03 Sep 09:35:48 09:39:02 26° 164° (SSE) 09:42:17 not established
KITSAT 1 03 Sep 10:22:05 10:26:39 16° 258° (WSW) 10:31:13 435.175 FM
RS-15 03 Sep 10:25:31 10:30:53 14° 332° (NNW) 10:36:16 29.354 - 29.394 USB, Beacon 29.352 USB
HO-68 03 Sep 10:26:00 10:32:58 57° 289° (WNW) 10:39:56 435.675 MHz FM
UKube-1 03 Sep 10:33:06 10:37:20 54° 286° (WNW) 10:41:34 145.840 MHz, 145.915 MHz
Oscar 11 03 Sep 10:34:56 10:39:18 81° 283° (WNW) 10:43:39 145.825 FM, Beacon 2401.500 USB
SO-50 03 Sep 11:00:41 11:04:10 20° 52° (NE) 11:07:41 436.795 FM
MaSat-1 03 Sep 11:09:35 11:12:55 19° 101° (ESE) 11:16:24 437.345 MHz
FUNcube-1 03 Sep 11:11:25 11:16:01 83° 283° (WNW) 11:20:38 145.950 - 145.970 MHz USB
PANSAT 03 Sep 11:15:12 11:18:54 44° 176° (S) 11:22:36 not established
UOSAT-12 03 Sep 12:38:37 12:41:18 15° 49° (NE) 12:43:58 437.025 FM, 437.400 FM
Oscar 16 03 Sep 12:40:10 12:44:08 23° 68° (ENE) 12:48:08 437.025 USB, Beacon 2401.1428
SO-50 03 Sep 12:40:20 12:44:54 43° 246° (WSW) 12:49:28 436.795 FM
MaSat-1 03 Sep 12:44:55 12:49:30 41° 297° (WNW) 12:54:21 437.345 MHz
ITAMSAT 1 03 Sep 12:49:41 12:50:30 10° 63° (ENE) 12:51:20 435.822 SSB
PANSAT 03 Sep 12:55:14 12:58:50 37° 189° (S) 13:02:25 not established
Uribyol 2 03 Sep 12:56:42 12:59:16 14° 65° (ENE) 13:01:50 436.500 FM
AO-27 03 Sep 13:16:28 13:20:20 22° 68° (ENE) 13:24:12 436.795 MHz FM
JAS-1B 03 Sep 13:22:56 13:31:44 41° 69° (ENE) 13:39:41 435.800 - 435.900 CW/SSB
AO-Echo 03 Sep 13:37:52 13:42:28 38° 73° (ENE) 13:46:58 ?
Oscar 19 03 Sep 13:42:20 13:47:29 84° 257° (WSW) 13:52:42 437.125 CW, 437.150 USB
Gurwin Techsat 1B 03 Sep 14:07:01 14:11:33 30° 70° (ENE) 14:16:07 435.225 FM
UOSAT-12 03 Sep 14:17:11 14:21:48 57° 245° (WSW) 14:26:19 437.025 FM, 437.400 FM
Oscar 16 03 Sep 14:18:36 14:23:14 34° 262° (W) 14:27:55 437.025 USB, Beacon 2401.1428
ITAMSAT 1 03 Sep 14:24:08 14:29:17 77° 257° (WSW) 14:34:28 435.822 SSB
AO-7 03 Sep 14:29:18 14:33:53 16° 55° (NE) 14:38:28 29.400 - 29.500 MHz
Uribyol 2 03 Sep 14:33:08 14:38:11 58° 259° (W) 14:43:16 436.500 FM
PANSAT 03 Sep 14:36:04 14:38:35 17° 201° (SSW) 14:41:06 not established
AO-27 03 Sep 14:54:50 14:59:34 36° 261° (W) 15:04:19 436.795 MHz FM
TMSAT-1 03 Sep 14:55:01 15:00:14 65° 75° (ENE) 15:05:28 436.925 FM
Sapphire 03 Sep 14:57:02 15:01:16 24° 106° (ESE) 15:05:31 437.095 MHz 1200 baud AX-25 AFSK
RS-15 03 Sep 14:59:22 15:08:46 30° 46° (NE) 15:18:23 29.354 - 29.394 USB, Beacon 29.352 USB
JAS-1B 03 Sep 15:12:41 15:21:56 46° 261° (W) 15:30:25 435.800 - 435.900 CW/SSB
AO-Echo 03 Sep 15:17:52 15:21:17 18° 265° (W) 15:24:39 ?
PCSat 03 Sep 15:24:55 15:30:05 50° 111° (ESE) 15:35:18 145.825 MHz
ISS 03 Sep 15:37:14 15:40:05 26° 37° (NE) 15:42:55 145.800 FM
Gurwin Techsat 1B 03 Sep 15:47:00 15:51:25 27° 263° (W) 15:55:53 435.225 FM
